Date,Time,Wetness (Wet Dry or Ice),Wind Speed (m/s),Temperature (C),Humidity (%),Pressure (mb),Radiation (W/m^2)
2020-06-18,04:30:00,DRY,6.07,7.73,41.0,773.00,1.7
2020-06-18,04:35:00,DRY,7.35,7.60,41.0,773.00,1.3
2020-06-18,04:40:00,DRY,6.30,7.40,47.3,773.00,1.3
2020-06-18,04:45:00,DRY,7.50,7.50,45.5,773.00,1.2
2020-06-18,04:50:00,DRY,8.17,7.97,38.3,773.00,1.2
2020-06-18,04:55:00,DRY,7.75,7.80,39.5,773.00,1.2
2020-06-18,05:00:00,DRY,8.63,8.13,38.3,773.00,1.2
2020-06-18,05:05:00,DRY,7.60,8.20,40.5,773.00,1.2
2020-06-18,05:10:00,DRY,6.37,7.73,41.7,773.00,1.3
2020-06-18,05:15:00,DRY,9.55,7.85,41.5,773.00,1.2
2020-06-18,05:20:00,DRY,6.80,7.60,43.0,773.00,1.4
2020-06-18,05:25:00,DRY,8.50,7.75,42.5,773.00,1.1
2020-06-18,05:30:00,DRY,5.77,7.70,42.3,773.00,1.2
2020-06-18,05:35:00,DRY,7.45,7.50,45.5,773.00,1.2
2020-06-18,05:40:00,DRY,7.27,7.50,44.3,773.00,1.3
2020-06-18,05:45:00,DRY,5.90,7.35,48.5,773.00,1.2
2020-06-18,05:50:00,DRY,6.67,7.20,50.7,773.00,1.1
2020-06-18,05:55:00,DRY,6.50,6.80,54.5,773.00,1.6
2020-06-18,06:00:00,DRY,6.37,6.80,55.0,773.00,2.5
2020-06-18,06:05:00,DRY,6.65,6.75,53.5,773.00,4.0
2020-06-18,06:10:00,DRY,7.03,7.17,51.0,773.67,5.8
2020-06-18,06:15:00,DRY,6.50,7.00,54.0,774.00,8.2
2020-06-18,06:20:00,DRY,6.60,7.07,52.7,774.00,17.1
2020-06-18,06:25:00,DRY,6.65,7.10,52.0,774.00,37.8
2020-06-18,06:30:00,DRY,6.80,7.37,49.7,774.00,52.3
2020-06-18,06:35:00,DRY,6.70,7.35,50.5,774.00,34.2
2020-06-18,06:40:00,DRY,5.87,7.63,49.7,774.00,71.1
2020-06-18,06:45:00,DRY,7.10,7.70,49.5,774.00,120.2
2020-06-18,06:50:00,DRY,7.73,7.67,49.7,774.00,138.7
2020-06-18,06:55:00,DRY,8.45,7.70,50.5,774.00,156.8
2020-06-18,07:00:00,DRY,7.50,7.77,47.7,774.00,176.1
2020-06-18,07:05:00,DRY,6.80,7.90,47.0,774.00,195.3
2020-06-18,07:10:00,DRY,6.67,7.77,47.3,774.00,216.6
2020-06-18,07:15:00,DRY,7.75,7.80,48.5,774.00,236.8
2020-06-18,07:20:00,DRY,7.03,7.87,49.0,774.00,257.9
2020-06-18,07:25:00,DRY,7.90,8.05,50.0,774.00,278.7
2020-06-18,07:30:00,DRY,8.17,8.00,49.7,774.00,300.2
2020-06-18,07:35:00,DRY,9.30,8.25,49.5,774.00,321.8
2020-06-18,07:40:00,DRY,7.20,8.10,50.7,774.00,342.6
2020-06-18,07:45:00,DRY,8.10,8.20,51.0,774.00,363.9
2020-06-18,07:50:00,DRY,7.37,8.30,51.3,774.00,385.1
2020-06-18,07:55:00,DRY,7.70,8.35,52.5,774.00,405.8
2020-06-18,08:00:00,DRY,8.03,8.03,55.0,774.00,427.6
2020-06-18,08:05:00,DRY,7.70,8.35,54.0,774.00,448.0
2020-06-18,08:10:00,DRY,7.43,8.43,54.3,774.00,469.5
2020-06-18,08:15:00,DRY,8.40,8.65,53.0,774.00,490.5
2020-06-18,08:20:00,DRY,7.80,8.57,53.7,774.33,510.6
2020-06-18,08:25:00,DRY,6.90,8.30,60.0,774.00,530.1
2020-06-18,08:30:00,DRY,8.10,8.23,59.0,774.00,550.6
2020-06-18,08:35:00,DRY,8.85,8.45,56.5,774.00,571.2
2020-06-18,08:40:00,DRY,8.00,8.53,54.7,774.33,591.7
2020-06-18,08:45:00,DRY,7.90,8.65,56.0,774.00,610.4
2020-06-18,08:50:00,DRY,7.47,8.80,55.3,774.33,630.6
2020-06-18,08:55:00,DRY,8.35,8.75,54.0,775.00,649.5
2020-06-18,09:00:00,DRY,7.20,9.00,58.3,774.67,668.4
2020-06-18,09:05:00,DRY,8.25,8.95,51.5,775.00,687.6
2020-06-18,09:10:00,DRY,7.63,8.87,58.7,774.33,705.7
2020-06-18,09:15:00,DRY,8.70,8.90,57.5,775.00,723.9
2020-06-18,09:20:00,DRY,6.37,8.93,60.0,775.00,742.1
2020-06-18,09:25:00,DRY,7.80,9.15,55.0,775.00,760.8
2020-06-18,09:30:00,DRY,6.73,8.83,58.3,775.00,777.9
2020-06-18,09:35:00,DRY,7.45,8.75,58.5,775.00,793.8
2020-06-18,09:40:00,DRY,7.87,9.27,58.3,775.00,810.8
2020-06-18,09:45:00,DRY,8.00,9.35,54.5,775.00,827.4
2020-06-18,09:50:00,DRY,5.27,9.60,53.3,775.00,845.5
2020-06-18,09:55:00,DRY,7.40,9.60,55.0,775.00,859.5
2020-06-18,10:00:00,DRY,7.90,9.83,52.7,775.00,875.3
2020-06-18,10:05:00,DRY,6.70,9.60,54.0,775.00,893.0
2020-06-18,10:10:00,DRY,6.13,9.97,54.0,775.00,906.0
2020-06-18,10:15:00,DRY,7.60,10.00,58.0,775.00,920.6
2020-06-18,10:20:00,DRY,7.93,10.00,54.3,775.00,934.4
2020-06-18,10:25:00,DRY,7.55,10.05,53.5,775.00,947.5
2020-06-18,10:30:00,DRY,7.97,10.17,59.0,775.00,960.8
2020-06-18,10:35:00,DRY,8.00,10.10,54.5,775.00,973.0
2020-06-18,10:40:00,DRY,5.20,10.33,54.0,775.00,987.3
2020-06-18,10:45:00,DRY,6.40,10.60,54.5,775.00,998.6
2020-06-18,10:50:00,DRY,7.87,10.77,55.3,775.00,1011.3
2020-06-18,10:55:00,DRY,6.95,10.65,58.0,775.50,1022.9
2020-06-18,11:00:00,DRY,7.13,10.67,57.3,775.00,1034.8
2020-06-18,11:05:00,DRY,7.85,10.35,57.5,775.00,1044.9
2020-06-18,11:10:00,DRY,7.43,10.43,60.3,775.33,1054.4
2020-06-18,11:15:00,DRY,7.50,10.30,63.5,775.50,1063.0
2020-06-18,11:20:00,DRY,6.57,10.20,64.0,775.33,1072.2
2020-06-18,11:25:00,DRY,8.45,10.45,59.0,775.00,1081.2
2020-06-18,11:30:00,DRY,7.40,10.60,57.0,775.33,1090.3
2020-06-18,11:35:00,DRY,8.60,10.75,56.5,775.50,1098.2
2020-06-18,11:40:00,DRY,6.93,10.57,59.3,776.00,1105.3
2020-06-18,11:45:00,DRY,7.65,10.45,58.0,775.50,1113.0
2020-06-18,11:50:00,DRY,7.80,10.40,57.3,776.00,1120.1
2020-06-18,11:55:00,DRY,5.45,10.65,57.5,776.00,1126.0
2020-06-18,12:00:00,DRY,7.57,10.63,63.0,775.67,1133.0
2020-06-18,12:05:00,DRY,6.70,10.95,57.0,775.50,1137.9
2020-06-18,12:10:00,DRY,6.70,11.03,59.7,775.33,1143.7
2020-06-18,12:15:00,DRY,6.45,10.60,60.0,776.00,1148.0
2020-06-18,12:20:00,DRY,6.40,10.80,63.7,775.67,1152.9
2020-06-18,12:25:00,DRY,6.55,11.00,61.0,776.00,1156.0
2020-06-18,12:30:00,DRY,7.10,11.07,58.7,775.33,1159.3
2020-06-18,12:35:00,DRY,7.50,11.40,58.0,775.50,1163.1
2020-06-18,12:40:00,DRY,5.67,10.83,61.0,775.33,1165.7
2020-06-18,12:45:00,DRY,8.65,11.45,57.0,775.00,1167.4
2020-06-18,12:50:00,DRY,8.40,11.23,54.7,775.33,1168.5
2020-06-18,12:55:00,DRY,8.10,10.90,57.0,775.00,1169.5
2020-06-18,13:00:00,DRY,8.07,11.37,54.3,775.33,1171.3
2020-06-18,13:05:00,DRY,6.25,10.85,56.0,775.50,1170.8
2020-06-18,13:10:00,DRY,6.93,11.27,59.7,775.33,1171.4
2020-06-18,13:15:00,DRY,7.00,11.50,59.5,776.00,1171.8
2020-06-18,13:20:00,DRY,6.80,11.23,64.0,775.67,1172.6
2020-06-18,13:25:00,DRY,7.60,11.65,60.0,775.50,1172.2
2020-06-18,13:30:00,DRY,8.10,11.30,59.0,775.00,1171.7
2020-06-18,13:35:00,DRY,10.00,11.90,55.0,775.00,1171.4
2020-06-18,13:40:00,DRY,6.33,11.10,65.3,775.33,1171.7
2020-06-18,13:45:00,DRY,6.90,11.25,70.0,775.50,1167.5
2020-06-18,13:50:00,DRY,6.90,11.10,67.7,775.00,1165.1
2020-06-18,13:55:00,DRY,6.50,11.35,65.5,775.00,1162.7
2020-06-18,14:00:00,DRY,6.83,11.57,72.0,775.00,1159.6
2020-06-18,14:05:00,DRY,6.90,11.50,69.0,775.00,1155.8
2020-06-18,14:10:00,DRY,5.47,11.23,65.7,775.33,1152.2
2020-06-18,14:15:00,DRY,7.65,10.75,67.0,775.00,1145.8
2020-06-18,14:20:00,DRY,7.70,10.90,66.3,775.00,1141.7
2020-06-18,14:25:00,DRY,6.75,11.20,61.0,775.00,1134.7
2020-06-18,14:30:00,DRY,6.53,11.20,65.3,775.33,1128.9
2020-06-18,14:35:00,DRY,7.00,11.35,67.0,775.50,1122.1
2020-06-18,14:40:00,DRY,6.83,11.13,70.3,775.00,1114.4
2020-06-18,14:45:00,DRY,6.85,11.05,64.0,775.00,1106.7
2020-06-18,14:50:00,DRY,6.23,10.93,70.0,775.00,1098.4
2020-06-18,14:55:00,DRY,6.00,10.95,66.5,775.00,1089.9
2020-06-18,15:00:00,DRY,7.43,10.70,69.7,775.00,1080.9
2020-06-18,15:05:00,DRY,7.90,10.65,70.0,775.00,1070.2
2020-06-18,15:10:00,DRY,6.33,10.23,73.0,775.00,1059.4
2020-06-18,15:15:00,DRY,7.10,10.10,74.0,775.00,1048.8
2020-06-18,15:20:00,DRY,6.27,10.47,73.0,775.00,1037.4
2020-06-18,15:25:00,DRY,7.70,10.30,67.0,775.00,1027.0
2020-06-18,15:30:00,DRY,6.73,10.73,65.0,775.00,1014.9
2020-06-18,15:35:00,DRY,7.35,10.45,64.0,775.00,1004.0
2020-06-18,15:40:00,DRY,7.33,10.67,61.3,775.00,990.9
2020-06-18,15:45:00,DRY,6.50,10.75,61.5,775.00,977.4
2020-06-18,15:50:00,DRY,7.03,10.67,66.0,775.00,964.6
2020-06-18,15:55:00,DRY,7.25,10.35,65.0,775.00,952.4
2020-06-18,16:00:00,DRY,7.23,10.63,62.0,775.00,937.7
2020-06-18,16:05:00,DRY,7.05,10.25,67.0,775.00,921.8
2020-06-18,16:10:00,DRY,6.63,10.33,66.3,775.00,908.3
2020-06-18,16:15:00,DRY,6.85,10.50,66.0,775.00,893.0
2020-06-18,16:20:00,DRY,5.13,10.60,66.7,775.00,877.6
2020-06-18,16:25:00,DRY,6.95,10.35,71.0,775.00,866.5
2020-06-18,16:30:00,DRY,6.03,10.23,75.3,775.00,846.3
2020-06-18,16:35:00,DRY,6.50,10.70,69.0,775.00,837.4
2020-06-18,16:40:00,DRY,6.40,10.13,72.3,775.00,801.9
2020-06-18,16:45:00,DRY,5.15,9.90,68.0,775.00,796.0
2020-06-18,16:50:00,DRY,5.63,10.23,61.0,775.00,778.8
2020-06-18,16:55:00,DRY,6.10,9.90,69.0,775.00,762.0
2020-06-18,17:00:00,DRY,5.93,10.03,66.0,775.00,741.7
2020-06-18,17:05:00,DRY,7.45,10.35,66.5,775.00,723.2
2020-06-18,17:10:00,DRY,6.40,10.17,65.0,775.00,656.9
2020-06-18,17:15:00,DRY,7.35,9.70,69.0,775.00,698.4
2020-06-18,17:20:00,DRY,6.70,9.63,69.7,775.00,667.5
2020-06-18,17:25:00,DRY,6.35,9.50,69.5,775.00,648.2
2020-06-18,17:30:00,DRY,6.73,9.50,72.0,775.00,631.9
2020-06-18,17:35:00,DRY,8.90,9.40,75.0,775.00,608.2
2020-06-18,17:40:00,DRY,7.47,9.00,76.7,775.00,588.4
2020-06-18,17:45:00,DRY,7.55,9.25,70.0,775.00,566.7
2020-06-18,17:50:00,DRY,5.27,8.47,75.7,775.00,547.4
2020-06-18,17:55:00,DRY,5.25,9.15,71.0,775.00,525.3
2020-06-18,18:00:00,DRY,6.80,9.20,68.7,775.00,505.7
2020-06-18,18:05:00,DRY,6.80,9.00,68.5,775.00,484.9
2020-06-18,18:10:00,DRY,6.70,9.03,68.3,775.00,461.8
2020-06-18,18:15:00,DRY,6.85,9.20,66.0,775.00,441.4
2020-06-18,18:20:00,DRY,7.43,9.50,63.3,775.00,420.9
2020-06-18,18:25:00,DRY,6.55,8.85,67.0,775.00,399.4
2020-06-18,18:30:00,DRY,6.97,9.00,66.3,775.00,378.0
2020-06-18,18:35:00,DRY,6.55,8.60,70.0,775.00,356.6
2020-06-18,18:40:00,DRY,6.73,8.77,68.3,775.00,335.2
2020-06-18,18:45:00,DRY,7.50,9.10,61.5,775.00,313.6
2020-06-18,18:50:00,DRY,9.37,8.97,62.0,775.00,293.1
2020-06-18,18:55:00,DRY,8.55,9.15,60.5,775.00,272.2
2020-06-18,19:00:00,DRY,8.30,9.10,61.0,775.00,251.4
2020-06-18,19:05:00,DRY,6.60,8.75,62.0,775.00,230.9
2020-06-18,19:10:00,DRY,7.10,8.77,63.0,775.33,210.9
2020-06-18,19:15:00,DRY,7.65,8.95,61.5,775.00,191.6
2020-06-18,19:20:00,DRY,8.20,8.83,61.0,775.67,172.7
2020-06-18,19:25:00,DRY,8.35,8.80,62.0,775.50,154.9
2020-06-18,19:30:00,DRY,7.70,8.80,61.3,776.00,136.2
2020-06-18,19:35:00,DRY,8.75,8.90,60.5,776.00,114.3
2020-06-18,19:40:00,DRY,8.10,8.63,61.7,776.00,89.8
2020-06-18,19:45:00,DRY,8.10,8.50,62.5,776.00,69.0
2020-06-18,19:50:00,DRY,6.93,8.47,61.7,776.00,50.7
2020-06-18,19:55:00,DRY,5.90,8.50,61.5,776.00,35.0
2020-06-18,20:00:00,DRY,7.00,8.43,62.0,776.00,22.8
2020-06-18,20:05:00,DRY,5.95,8.45,61.5,776.00,14.6
2020-06-18,20:10:00,DRY,6.50,8.53,60.3,776.00,10.8
2020-06-18,20:15:00,DRY,7.55,8.50,61.0,776.00,6.8
2020-06-18,20:20:00,DRY,6.00,8.10,63.0,776.00,4.1
2020-06-18,20:25:00,DRY,7.15,8.15,62.5,776.00,2.5
2020-06-18,20:30:00,DRY,7.47,8.10,62.0,776.00,1.9
2020-06-18,20:35:00,DRY,6.15,8.20,61.5,776.00,1.4
2020-06-18,20:40:00,DRY,5.60,8.03,61.3,776.00,1.9
2020-06-18,20:45:00,DRY,6.70,7.95,62.0,776.00,1.2
2020-06-18,20:50:00,DRY,5.30,8.03,60.7,776.00,1.2
2020-06-18,20:55:00,DRY,6.35,8.10,60.0,776.00,1.9
2020-06-18,21:00:00,DRY,5.33,8.27,60.0,776.00,1.3
2020-06-18,21:05:00,DRY,6.15,8.30,60.0,776.00,1.1
2020-06-18,21:10:00,DRY,6.97,8.30,58.3,776.00,0.9
2020-06-18,21:15:00,DRY,6.90,8.30,59.0,776.00,1.3
2020-06-18,21:20:00,DRY,6.20,8.47,58.3,776.00,1.0
2020-06-18,21:25:00,DRY,6.90,8.50,58.0,776.00,1.0
2020-06-18,21:30:00,DRY,5.90,8.50,57.7,776.00,1.1
2020-06-18,21:35:00,DRY,5.40,8.55,56.5,776.00,1.0
2020-06-18,21:40:00,DRY,5.67,8.83,56.0,776.00,1.1
2020-06-18,21:45:00,DRY,5.00,8.85,54.5,776.00,1.1
2020-06-18,21:50:00,DRY,5.73,8.87,54.3,776.00,1.0
2020-06-18,21:55:00,DRY,5.75,8.80,53.0,776.50,1.1
2020-06-18,22:00:00,DRY,5.13,8.60,48.7,776.67,1.0
2020-06-18,22:05:00,DRY,4.35,8.55,47.0,777.00,0.9
2020-06-18,22:10:00,DRY,4.33,8.50,47.0,777.00,1.0
2020-06-18,22:15:00,DRY,4.70,8.30,49.0,777.00,0.9
2020-06-18,22:20:00,DRY,4.40,8.17,51.3,777.00,1.2
2020-06-18,22:25:00,DRY,4.40,8.10,51.5,777.00,1.1
2020-06-18,22:30:00,DRY,4.47,8.03,51.7,777.00,1.0
2020-06-18,22:35:00,DRY,5.40,8.15,49.5,777.00,1.1
2020-06-18,22:40:00,DRY,4.53,8.27,49.7,777.00,1.1
2020-06-18,22:45:00,DRY,4.65,8.15,52.0,777.00,1.1
2020-06-18,22:50:00,DRY,5.73,8.23,51.7,777.00,0.9
2020-06-18,22:55:00,DRY,4.40,8.05,54.0,777.00,1.2
2020-06-18,23:00:00,DRY,5.70,8.03,53.7,777.00,1.7
2020-06-18,23:05:00,DRY,4.70,8.10,52.0,777.00,1.8
2020-06-18,23:10:00,DRY,6.03,8.17,50.7,777.00,1.1
2020-06-18,23:15:00,DRY,4.40,8.20,50.5,777.00,0.9
2020-06-18,23:20:00,DRY,6.40,8.23,49.0,777.00,0.9
2020-06-18,23:25:00,DRY,4.45,8.60,45.0,777.00,1.1
2020-06-18,23:30:00,DRY,6.17,8.63,45.0,777.00,1.0
2020-06-18,23:35:00,DRY,5.60,8.60,46.0,777.00,1.0
2020-06-18,23:40:00,DRY,5.17,8.53,45.3,777.00,1.0
2020-06-18,23:45:00,DRY,5.55,8.50,45.5,777.00,1.0
2020-06-18,23:50:00,DRY,5.90,8.67,45.7,777.00,1.0
2020-06-18,23:55:00,DRY,3.80,8.75,46.0,777.00,1.2
2020-06-19,00:00:00,DRY,3.73,8.50,47.7,777.00,0.8
2020-06-19,00:05:00,DRY,4.60,8.45,47.5,777.00,0.7
2020-06-19,00:10:00,DRY,6.43,8.47,48.7,777.00,1.0
2020-06-19,00:15:00,DRY,5.95,9.00,45.0,777.00,1.0
2020-06-19,00:20:00,DRY,5.73,9.40,41.7,776.67,1.0
2020-06-19,00:25:00,DRY,5.30,9.85,40.5,777.00,1.1
2020-06-19,00:30:00,DRY,6.07,9.50,41.0,776.67,1.0
2020-06-19,00:35:00,DRY,6.10,9.40,40.5,776.50,1.1
2020-06-19,00:40:00,DRY,5.90,9.27,41.0,776.00,1.5
2020-06-19,00:45:00,DRY,4.80,9.60,40.0,776.50,1.2
2020-06-19,00:50:00,DRY,5.87,9.63,40.3,776.00,1.0
2020-06-19,00:55:00,DRY,5.40,9.50,41.0,776.50,1.0
2020-06-19,01:00:00,DRY,5.27,9.70,39.7,776.00,1.1
2020-06-19,01:05:00,DRY,5.55,9.65,39.5,776.00,1.1
2020-06-19,01:10:00,DRY,5.57,9.63,38.7,776.00,1.0
2020-06-19,01:15:00,DRY,5.95,9.70,39.0,776.00,1.3
2020-06-19,01:20:00,DRY,4.50,9.73,38.0,776.00,0.9
2020-06-19,01:25:00,DRY,6.15,10.05,36.5,776.00,1.4
2020-06-19,01:30:00,DRY,4.97,10.00,37.7,776.00,1.0
2020-06-19,01:35:00,DRY,4.55,9.90,40.5,776.00,0.9
2020-06-19,01:40:00,DRY,5.23,9.83,40.0,776.00,0.9
2020-06-19,01:45:00,DRY,5.35,10.00,39.5,776.00,1.8
2020-06-19,01:50:00,DRY,6.13,10.07,38.3,776.00,1.3
2020-06-19,01:55:00,DRY,4.80,10.15,38.5,776.00,1.1
2020-06-19,02:00:00,DRY,4.77,10.17,38.0,776.00,1.1
2020-06-19,02:05:00,DRY,4.30,10.25,37.0,776.00,1.4
2020-06-19,02:10:00,DRY,5.27,10.57,35.0,776.00,1.2
2020-06-19,02:15:00,DRY,4.75,10.45,36.0,776.00,1.1
2020-06-19,02:20:00,DRY,6.07,10.10,35.7,776.00,1.1
2020-06-19,02:25:00,DRY,3.80,10.10,35.0,776.00,1.2
2020-06-19,02:30:00,DRY,3.93,10.47,33.3,776.00,1.2
2020-06-19,02:35:00,DRY,3.50,10.70,34.0,776.00,1.2
2020-06-19,02:40:00,DRY,2.60,10.43,33.0,776.00,2.1
2020-06-19,02:45:00,DRY,3.10,10.40,33.5,776.00,1.5
2020-06-19,02:50:00,DRY,2.90,10.33,33.7,776.00,0.6
2020-06-19,02:55:00,DRY,3.15,10.20,34.0,776.00,1.1
2020-06-19,03:00:00,DRY,3.53,10.73,32.3,776.00,0.7
2020-06-19,03:05:00,DRY,2.40,11.15,31.0,776.00,1.2
2020-06-19,03:10:00,DRY,3.63,11.10,32.0,776.00,1.6
2020-06-19,03:15:00,DRY,3.00,11.70,29.0,776.00,0.9
2020-06-19,03:20:00,DRY,1.60,11.20,32.7,776.00,1.2
2020-06-19,03:25:00,DRY,1.20,10.40,35.0,776.00,1.1
2020-06-19,03:30:00,DRY,2.33,10.70,34.0,776.00,1.3
2020-06-19,03:35:00,DRY,2.80,11.00,32.5,776.00,1.4
2020-06-19,03:40:00,DRY,1.70,10.70,35.0,776.00,1.8
2020-06-19,03:45:00,DRY,2.00,10.30,36.5,776.00,1.6
2020-06-19,03:50:00,DRY,2.47,10.30,37.3,776.00,1.1
2020-06-19,03:55:00,DRY,3.30,10.50,37.5,776.00,1.3
2020-06-19,04:00:00,DRY,2.77,10.57,37.3,776.00,0.5
2020-06-19,04:05:00,DRY,2.05,10.70,37.0,776.00,1.9
2020-06-19,04:10:00,DRY,0.53,10.60,36.7,776.00,1.0
2020-06-19,04:15:00,DRY,1.05,10.65,37.0,776.00,1.1
2020-06-19,04:20:00,DRY,1.53,10.53,37.7,776.00,1.5
2020-06-19,04:25:00,DRY,2.30,10.45,38.0,776.00,1.1
2020-06-19,04:30:00,DRY,2.40,10.27,38.3,776.00,1.2
2020-06-19,04:35:00,DRY,2.25,10.45,35.0,776.00,1.0
2020-06-19,04:40:00,DRY,2.87,10.53,35.7,776.00,0.9
2020-06-19,04:45:00,DRY,4.10,10.20,37.5,776.00,1.0
2020-06-19,04:50:00,DRY,4.37,10.37,34.3,776.00,1.2
2020-06-19,04:55:00,DRY,3.00,10.30,35.5,776.00,1.4
2020-06-19,05:00:00,DRY,3.00,10.27,37.3,776.00,0.8
2020-06-19,05:05:00,DRY,2.05,10.45,37.5,776.00,1.4
2020-06-19,05:10:00,DRY,3.03,10.60,35.0,776.00,1.3
2020-06-19,05:15:00,DRY,2.15,10.75,34.0,776.00,0.8
2020-06-19,05:20:00,DRY,1.47,10.53,33.7,776.00,1.5
2020-06-19,05:25:00,DRY,2.40,10.65,34.5,776.00,1.1
2020-06-19,05:30:00,DRY,3.60,10.43,34.0,776.00,0.6
2020-06-19,05:35:00,DRY,4.05,10.65,32.5,776.00,1.2
2020-06-19,05:40:00,DRY,3.80,10.97,28.3,776.00,1.7
2020-06-19,05:45:00,DRY,3.70,11.15,26.0,776.00,1.7
2020-06-19,05:50:00,DRY,3.83,11.03,29.3,776.00,1.2
2020-06-19,05:55:00,DRY,2.85,10.95,31.0,776.00,1.1
2020-06-19,06:00:00,DRY,3.63,11.27,28.3,776.00,2.2
2020-06-19,06:05:00,DRY,2.15,11.15,28.0,776.00,3.6
2020-06-19,06:10:00,DRY,2.60,11.23,28.3,776.00,5.3
2020-06-19,06:15:00,DRY,3.30,11.25,28.5,776.00,8.1
2020-06-19,06:20:00,DRY,3.07,11.57,27.7,776.00,16.5
2020-06-19,06:25:00,DRY,2.95,11.25,32.5,776.00,37.0
2020-06-19,06:30:00,DRY,3.17,10.57,37.0,776.00,53.3
2020-06-19,06:35:00,DRY,2.70,10.35,38.0,776.00,36.6
2020-06-19,06:40:00,DRY,4.13,10.93,35.7,776.00,64.9
2020-06-19,06:45:00,DRY,4.80,11.35,32.0,776.00,119.9
2020-06-19,06:50:00,DRY,3.15,11.35,33.5,776.00,138.4
2020-06-19,06:55:00,DRY,3.80,11.65,31.0,776.00,157.1
2020-06-19,07:00:00,DRY,3.17,11.97,27.7,776.00,177.3
2020-06-19,07:05:00,DRY,2.80,12.00,31.5,776.00,196.5
2020-06-19,07:10:00,DRY,2.30,11.90,29.5,776.00,217.8
2020-06-19,07:15:00,DRY,3.05,12.00,29.5,776.00,239.6
2020-06-19,07:20:00,DRY,2.03,12.40,29.0,776.00,260.4
2020-06-19,07:25:00,DRY,1.80,12.20,31.0,776.00,281.8
2020-06-19,07:30:00,DRY,3.43,12.23,33.0,776.00,303.3
2020-06-19,07:35:00,DRY,3.75,12.10,34.0,776.00,325.3
2020-06-19,07:40:00,DRY,4.70,12.17,31.0,776.00,346.7
2020-06-19,07:45:00,DRY,4.35,12.55,29.0,776.00,368.2
2020-06-19,07:50:00,DRY,4.45,12.60,30.0,776.00,385.4
2020-06-19,07:55:00,DRY,4.00,12.90,28.5,776.00,411.8
2020-06-19,08:00:00,DRY,4.30,12.83,27.7,776.00,434.8
2020-06-19,08:05:00,DRY,4.60,12.60,29.5,776.00,454.5
2020-06-19,08:10:00,DRY,4.27,12.53,32.3,776.00,474.7
2020-06-19,08:15:00,DRY,5.60,12.45,31.5,776.00,496.5
2020-06-19,08:20:00,DRY,3.80,12.43,33.0,776.00,516.6
2020-06-19,08:25:00,DRY,3.85,12.55,34.0,776.00,536.8
2020-06-19,08:30:00,DRY,3.93,12.20,36.3,776.00,558.1
2020-06-19,08:35:00,DRY,3.75,12.35,36.5,776.00,579.5
2020-06-19,08:40:00,DRY,3.27,12.63,32.3,776.33,599.4
2020-06-19,08:45:00,DRY,4.75,12.55,36.5,777.00,618.8
2020-06-19,08:50:00,DRY,3.03,13.03,31.7,776.33,638.1
2020-06-19,08:55:00,DRY,3.20,13.20,37.0,777.00,658.0
2020-06-19,09:00:00,DRY,2.63,13.13,38.7,776.67,676.9
2020-06-19,09:05:00,DRY,2.00,12.85,42.0,776.00,696.1
2020-06-19,09:10:00,DRY,3.20,12.37,41.0,776.33,714.1
2020-06-19,09:15:00,DRY,3.35,12.10,41.5,776.00,733.5
2020-06-19,09:20:00,DRY,3.43,11.73,45.0,776.00,751.9
2020-06-19,09:25:00,DRY,3.05,11.80,44.5,776.00,771.5
2020-06-19,09:30:00,DRY,2.97,12.23,42.0,776.33,788.1
2020-06-19,09:35:00,DRY,3.20,12.80,39.0,777.00,806.0
2020-06-19,09:40:00,DRY,3.73,12.50,39.7,777.00,824.6
2020-06-19,09:45:00,DRY,4.60,12.65,39.5,777.00,841.1
2020-06-19,09:50:00,DRY,3.60,12.77,38.7,777.00,857.3
2020-06-19,09:55:00,DRY,3.85,13.05,37.5,777.00,873.4
2020-06-19,10:00:00,DRY,3.47,13.37,34.7,777.00,890.4
2020-06-19,10:05:00,DRY,3.65,13.35,30.0,777.00,906.7
2020-06-19,10:10:00,DRY,1.87,13.17,37.3,777.00,920.2
2020-06-19,10:15:00,DRY,1.65,13.50,33.5,777.00,936.5
2020-06-19,10:20:00,DRY,2.40,13.77,31.0,777.00,951.0
2020-06-19,10:25:00,DRY,2.30,13.85,32.0,777.00,964.0
2020-06-19,10:30:00,DRY,2.97,14.13,31.0,777.00,978.1
2020-06-19,10:35:00,DRY,2.05,14.15,37.5,777.00,992.2
2020-06-19,10:40:00,DRY,2.67,14.03,36.0,777.00,1005.0
2020-06-19,10:45:00,DRY,2.45,14.00,27.0,777.00,1018.1
2020-06-19,10:50:00,DRY,3.03,14.60,31.0,777.00,1031.1
2020-06-19,10:55:00,DRY,4.35,14.75,23.0,777.00,1042.7
2020-06-19,11:00:00,DRY,2.73,13.97,36.7,777.00,1052.1
2020-06-19,11:05:00,DRY,2.35,14.25,36.0,777.00,1063.8
2020-06-19,11:10:00,DRY,2.83,14.10,36.0,777.00,1073.2
2020-06-19,11:15:00,DRY,3.55,14.15,28.0,777.00,1085.7
2020-06-19,11:20:00,DRY,2.03,14.20,33.3,777.00,1094.8
2020-06-19,11:25:00,DRY,1.05,13.85,47.5,777.00,1105.7
2020-06-19,11:30:00,DRY,3.03,13.90,30.7,777.00,1112.8
2020-06-19,11:35:00,DRY,1.90,14.20,34.0,777.00,1123.5
2020-06-19,11:40:00,DRY,2.73,14.43,30.7,777.00,1128.8
2020-06-19,11:45:00,DRY,3.75,14.35,33.5,777.00,1137.8
2020-06-19,11:50:00,DRY,2.90,14.40,36.3,777.00,1144.3
2020-06-19,11:55:00,DRY,2.40,14.60,32.0,777.00,1148.9
2020-06-19,12:00:00,DRY,2.60,14.67,35.0,777.00,1156.3
2020-06-19,12:05:00,DRY,2.25,14.45,39.0,777.00,1159.7
2020-06-19,12:10:00,DRY,2.10,14.23,40.7,777.00,1164.4
2020-06-19,12:15:00,DRY,1.55,14.40,43.5,777.00,1168.2
2020-06-19,12:20:00,DRY,2.07,15.17,31.7,777.00,1173.4
2020-06-19,12:25:00,DRY,4.15,15.10,30.0,777.00,1176.2
2020-06-19,12:30:00,DRY,3.70,14.20,44.5,777.00,1179.2
2020-06-19,12:35:00,DRY,2.60,14.50,33.5,777.50,1181.9
2020-06-19,12:40:00,DRY,2.07,14.37,29.7,777.00,1184.5
2020-06-19,12:45:00,DRY,2.50,15.40,28.0,777.00,1187.2
2020-06-19,12:50:00,DRY,2.97,15.10,36.0,777.33,1188.5
2020-06-19,12:55:00,DRY,1.80,15.00,31.5,777.50,1187.6
2020-06-19,13:00:00,DRY,2.50,14.83,36.3,777.33,1191.5
2020-06-19,13:05:00,DRY,1.15,14.50,27.0,777.50,1192.9
2020-06-19,13:10:00,DRY,1.87,13.93,33.7,777.67,1191.8
2020-06-19,13:15:00,DRY,2.80,14.35,37.0,777.50,1191.3
2020-06-19,13:20:00,DRY,2.93,13.97,36.3,777.00,1191.7
2020-06-19,13:25:00,DRY,2.05,14.05,39.5,777.00,1191.2
2020-06-19,13:30:00,DRY,4.30,14.50,29.0,777.00,1192.6
2020-06-19,13:35:00,DRY,5.60,14.20,27.0,777.00,1189.5
2020-06-19,13:40:00,DRY,3.27,14.07,37.3,777.00,1188.0
2020-06-19,13:45:00,DRY,3.30,14.20,31.5,777.00,1187.2
2020-06-19,13:50:00,DRY,4.37,15.03,30.3,777.00,1185.5
2020-06-19,13:55:00,DRY,3.55,15.00,30.5,777.50,1181.8
2020-06-19,14:00:00,DRY,4.63,14.47,31.0,777.00,1180.2
2020-06-19,14:05:00,DRY,3.70,14.25,28.0,777.50,1174.5
2020-06-19,14:10:00,DRY,2.90,14.00,33.0,777.00,1169.4
2020-06-19,14:15:00,DRY,4.10,14.60,36.0,777.00,1163.4
2020-06-19,14:20:00,DRY,3.03,14.20,31.3,777.00,1160.2
2020-06-19,14:25:00,DRY,3.35,14.45,34.0,777.00,1153.5
2020-06-19,14:30:00,DRY,3.30,14.43,32.7,777.00,1148.5
2020-06-19,14:35:00,DRY,3.40,14.95,30.5,777.00,1140.0
2020-06-19,14:40:00,DRY,4.17,14.63,32.3,777.00,1136.2
2020-06-19,14:45:00,DRY,3.60,14.80,35.0,777.00,1125.6
2020-06-19,14:50:00,DRY,4.10,14.70,30.0,777.00,1119.9
2020-06-19,14:55:00,DRY,4.00,14.20,33.5,777.00,1108.3
2020-06-19,15:00:00,DRY,2.97,14.57,32.3,777.00,1101.0
2020-06-19,15:05:00,DRY,3.50,14.95,33.0,777.00,1091.6
2020-06-19,15:10:00,DRY,3.27,15.27,32.7,777.00,1082.7
2020-06-19,15:15:00,DRY,2.95,15.00,31.5,777.00,1071.0
2020-06-19,15:20:00,DRY,3.23,14.60,34.3,777.00,1059.4
2020-06-19,15:25:00,DRY,4.10,14.85,32.0,777.00,1046.4
2020-06-19,15:30:00,DRY,2.43,14.30,33.0,777.00,1034.5
2020-06-19,15:35:00,DRY,4.40,15.05,32.0,777.00,1022.6
2020-06-19,15:40:00,DRY,3.73,14.33,31.3,777.00,1009.8
2020-06-19,15:45:00,DRY,3.40,14.45,36.0,777.00,995.8
2020-06-19,15:50:00,DRY,3.75,14.05,33.0,777.00,986.2
2020-06-19,15:55:00,DRY,6.85,13.90,30.0,777.00,968.5
2020-06-19,16:00:00,DRY,4.20,14.13,34.3,777.00,953.9
2020-06-19,16:05:00,DRY,2.25,14.25,31.0,777.00,938.5
2020-06-19,16:10:00,DRY,3.87,14.73,30.7,777.00,924.9
2020-06-19,16:15:00,DRY,1.50,15.00,37.0,777.00,907.6
2020-06-19,16:20:00,DRY,1.57,14.90,32.3,777.00,894.9
2020-06-19,16:25:00,DRY,1.65,14.95,34.0,777.00,877.2
2020-06-19,16:30:00,DRY,3.00,14.23,34.0,777.00,860.5
2020-06-19,16:35:00,DRY,2.30,14.30,37.0,777.00,845.0
2020-06-19,16:40:00,DRY,2.67,13.80,37.3,777.00,826.6
2020-06-19,16:45:00,DRY,2.30,14.25,32.5,777.00,811.2
2020-06-19,16:50:00,DRY,3.23,14.13,32.7,777.00,791.6
2020-06-19,16:55:00,DRY,3.00,14.50,32.0,777.00,774.0
2020-06-19,17:00:00,DRY,3.27,13.77,31.0,777.00,756.1
2020-06-19,17:05:00,DRY,4.30,13.70,32.5,777.00,737.4
2020-06-19,17:10:00,DRY,3.53,14.20,32.0,777.00,718.8
2020-06-19,17:15:00,DRY,3.75,14.10,31.5,777.00,700.0
2020-06-19,17:20:00,DRY,3.63,13.60,32.3,777.00,680.5
2020-06-19,17:25:00,DRY,2.50,13.05,33.0,777.00,659.8
2020-06-19,17:30:00,DRY,2.83,12.87,33.3,777.00,641.0
2020-06-19,17:35:00,DRY,1.95,12.70,33.0,777.00,619.4
2020-06-19,17:40:00,DRY,2.80,13.10,33.7,777.00,598.8
2020-06-19,17:45:00,DRY,2.60,12.80,33.0,777.00,579.2
2020-06-19,17:50:00,DRY,3.73,12.93,31.3,777.00,558.0
2020-06-19,17:55:00,DRY,3.30,13.45,31.0,777.00,537.8
2020-06-19,18:00:00,DRY,2.43,13.47,30.0,777.00,516.4
2020-06-19,18:05:00,DRY,1.95,13.35,29.0,777.00,495.2
2020-06-19,18:10:00,DRY,2.70,13.30,28.3,777.00,473.8
2020-06-19,18:15:00,DRY,3.55,13.05,29.0,777.00,452.9
2020-06-19,18:20:00,DRY,1.93,13.00,32.7,777.00,429.9
2020-06-19,18:25:00,DRY,2.10,12.90,30.0,777.00,409.8
2020-06-19,18:30:00,DRY,4.73,13.03,29.3,777.00,388.7